Time,TemperatureF,DewpointF,PressureIn,WindDirection,WindDirectionDegrees,WindSpeedMPH,WindSpeedGustMPH,Humidity,HourlyPrecipIn,Conditions,Clouds,dailyrainin,SoftwareType,DateUTC
2013-12-25 00:00:00,40.5,33.4,28.50,SE,129,3.6,8.9,76,0.00,,,0.00,WeatherCatV1.23B14,2013-12-25 00:00:00,
2013-12-25 00:05:00,40.6,33.6,28.50,SE,130,5.3,6.9,76,0.00,,,0.00,WeatherCatV1.23B14,2013-12-25 00:05:00,
2013-12-25 00:10:00,40.6,33.6,28.50,SE,130,7.7,0.0,76,0.00,,,0.00,WeatherCatV1.23B14,2013-12-25 00:10:00,
2013-12-25 00:15:00,40.6,33.6,28.50,SE,128,3.8,0.0,76,0.00,,,0.00,WeatherCatV1.23B14,2013-12-25 00:15:00,
2013-12-25 00:16:00,40.6,33.6,28.50,SE,130,7.7,0.0,76,0.00,,,0.00,WeatherCatV1.23B14,2013-12-25 00:16:00,
2013-12-25 00:20:00,40.8,33.8,28.51,SE,128,4.2,5.4,76,0.00,,,0.00,WeatherCatV1.23B14,2013-12-25 00:20:00,
2013-12-25 00:25:00,40.6,33.8,28.50,SE,131,1.1,0.0,77,0.00,,,0.00,WeatherCatV1.23B14,2013-12-25 00:25:00,
2013-12-25 00:30:00,40.6,33.8,28.50,SE,134,2.4,0.0,77,0.00,,,0.00,WeatherCatV1.23B14,2013-12-25 00:30:00,
2013-12-25 00:35:00,40.6,33.8,28.50,SE,131,4.0,5.6,77,0.00,,,0.00,WeatherCatV1.23B14,2013-12-25 00:35:00,
2013-12-25 00:40:00,40.3,33.9,28.51,SE,133,5.4,6.5,78,0.00,,,0.00,WeatherCatV1.23B14,2013-12-25 00:40:00,
2013-12-25 00:45:00,40.3,33.8,28.50,SE,131,4.1,5.6,78,0.00,,,0.00,WeatherCatV1.23B14,2013-12-25 00:45:00,
2013-12-25 00:58:00,40.3,33.9,28.52,SE,126,7.7,8.7,78,0.00,,,0.00,WeatherCatV1.23B14,2013-12-25 00:58:00,
2013-12-25 01:05:00,40.3,34.4,28.52,SE,132,8.5,10.5,80,0.00,,,0.00,WeatherCatV1.23B14,2013-12-25 01:05:00,
2013-12-25 01:08:00,39.9,34.6,28.51,South,180,4.7,4.7,80,0.00,,,0.00,WeatherCatV1.23B14,2013-12-25 01:08:00,
2013-12-25 01:10:00,39.9,34.6,28.51,SE,136,3.3,4.7,80,0.00,,,0.00,WeatherCatV1.23B14,2013-12-25 01:10:00,
2013-12-25 01:15:00,39.6,34.6,28.51,SE,138,0.8,0.0,81,0.00,,,0.00,WeatherCatV1.23B14,2013-12-25 01:15:00,
2013-12-25 01:20:00,39.6,34.2,28.51,SE,138,4.0,7.6,82,0.00,,,0.00,WeatherCatV1.23B14,2013-12-25 01:20:00,
2013-12-25 01:25:00,39.4,34.2,28.52,SE,135,4.6,7.6,82,0.00,,,0.00,WeatherCatV1.23B14,2013-12-25 01:25:00,
2013-12-25 01:30:00,39.4,34.4,28.52,SE,140,1.8,1.8,82,0.00,,,0.00,WeatherCatV1.23B14,2013-12-25 01:30:00,
2013-12-25 01:35:00,39.4,34.4,28.52,SE,141,0.9,0.0,82,0.00,,,0.00,WeatherCatV1.23B14,2013-12-25 01:35:00,
2013-12-25 01:40:00,39.4,34.4,28.52,SE,142,4.1,7.4,82,0.00,,,0.00,WeatherCatV1.23B14,2013-12-25 01:40:00,
2013-12-25 01:50:00,39.4,34.4,28.52,SE,142,2.1,0.0,82,0.00,,,0.00,WeatherCatV1.23B14,2013-12-25 01:50:00,
2013-12-25 02:11:00,39.6,34.2,28.53,SSE,157,6.5,6.5,81,0.00,,,0.00,WeatherCatV1.23B14,2013-12-25 02:11:00,
2013-12-25 02:30:00,40.1,34.4,28.54,SE,130,3.3,3.4,81,0.00,,,0.00,WeatherCatV1.23B14,2013-12-25 02:30:00,
2013-12-25 02:31:00,40.1,34.4,28.54,SSE,157,1.1,1.1,81,0.00,,,0.00,WeatherCatV1.23B14,2013-12-25 02:31:00,
2013-12-25 02:35:00,40.1,34.4,28.54,SE,134,0.6,0.0,80,0.00,,,0.00,WeatherCatV1.23B14,2013-12-25 02:35:00,
2013-12-25 02:40:00,40.3,34.6,28.54,SE,128,1.2,0.0,80,0.00,,,0.00,WeatherCatV1.23B14,2013-12-25 02:40:00,
2013-12-25 02:45:00,40.3,34.4,28.54,SE,131,2.2,7.6,80,0.00,,,0.00,WeatherCatV1.23B14,2013-12-25 02:45:00,
2013-12-25 02:50:00,40.6,34.4,28.54,SE,136,2.1,6.0,79,0.00,,,0.00,WeatherCatV1.23B14,2013-12-25 02:50:00,
2013-12-25 02:55:00,40.6,34.9,28.54,SE,128,5.4,8.3,80,0.00,,,0.00,WeatherCatV1.23B14,2013-12-25 02:55:00,
2013-12-25 03:00:00,40.6,34.9,28.56,SE,126,3.2,7.4,80,0.00,,,0.00,WeatherCatV1.23B14,2013-12-25 03:00:00,
2013-12-25 03:13:00,40.1,34.9,28.56,SE,125,2.0,2.0,80,0.00,,,0.00,WeatherCatV1.23B14,2013-12-25 03:13:00,
2013-12-25 03:30:00,40.1,35.0,28.57,ESE,102,2.4,2.4,82,0.00,,,0.00,WeatherCatV1.23B14,2013-12-25 03:30:00,
2013-12-25 03:33:00,40.1,35.3,28.57,SSE,157,0.9,0.9,83,0.00,,,0.00,WeatherCatV1.23B14,2013-12-25 03:33:00,
2013-12-25 03:35:00,40.1,35.3,28.57,ESE,102,1.6,1.6,83,0.00,,,0.00,WeatherCatV1.23B14,2013-12-25 03:35:00,
2013-12-25 03:40:00,40.1,35.3,28.57,ESE,106,2.2,2.7,83,0.00,,,0.00,WeatherCatV1.23B14,2013-12-25 03:40:00,
2013-12-25 03:45:00,40.1,35.3,28.57,ESE,109,1.5,1.5,83,0.00,,,0.00,WeatherCatV1.23B14,2013-12-25 03:45:00,
2013-12-25 03:50:00,40.1,35.3,28.58,ESE,109,0.6,0.9,83,0.00,,,0.00,WeatherCatV1.23B14,2013-12-25 03:50:00,
2013-12-25 03:55:00,40.1,35.3,28.58,ESE,111,0.6,0.0,83,0.00,,,0.00,WeatherCatV1.23B14,2013-12-25 03:55:00,
2013-12-25 04:00:00,40.1,35.3,28.58,ESE,110,1.0,3.4,83,0.00,,,0.00,WeatherCatV1.23B14,2013-12-25 04:00:00,
2013-12-25 04:05:00,40.1,35.3,28.58,ESE,114,3.5,5.8,83,0.00,,,0.00,WeatherCatV1.23B14,2013-12-25 04:05:00,
2013-12-25 04:10:00,40.1,35.3,28.59,ESE,115,1.7,5.8,82,0.00,,,0.00,WeatherCatV1.23B14,2013-12-25 04:10:00,
2013-12-25 04:15:00,40.3,35.3,28.59,SE,135,6.3,6.3,82,0.00,,,0.00,WeatherCatV1.23B14,2013-12-25 04:15:00,
2013-12-25 04:20:00,40.3,35.2,28.58,SE,125,2.7,2.7,82,0.00,,,0.00,WeatherCatV1.23B14,2013-12-25 04:20:00,
2013-12-25 04:25:00,40.3,34.7,28.58,ESE,120,4.4,6.0,81,0.00,,,0.00,WeatherCatV1.23B14,2013-12-25 04:25:00,
2013-12-25 04:30:00,40.1,34.7,28.59,ESE,118,2.5,7.8,81,0.00,,,0.00,WeatherCatV1.23B14,2013-12-25 04:30:00,
2013-12-25 04:35:00,40.1,34.7,28.59,ESE,122,3.3,10.5,80,0.00,,,0.00,WeatherCatV1.23B14,2013-12-25 04:35:00,
2013-12-25 04:40:00,40.1,34.4,28.58,ESE,120,4.3,6.0,80,0.00,,,0.00,WeatherCatV1.23B14,2013-12-25 04:40:00,
2013-12-25 04:45:00,40.1,34.1,28.58,ESE,123,1.3,0.0,79,0.00,,,0.00,WeatherCatV1.23B14,2013-12-25 04:45:00,
2013-12-25 04:57:00,40.3,33.9,28.58,ESE,119,1.9,2.2,79,0.00,,,0.00,WeatherCatV1.23B14,2013-12-25 04:57:00,
2013-12-25 05:17:00,40.3,33.4,28.59,SSW,202,0.0,0.0,76,0.00,,,0.00,WeatherCatV1.23B14,2013-12-25 05:17:00,
2013-12-25 05:27:00,40.1,33.1,28.61,South,180,0.0,8.3,76,0.00,,,0.00,WeatherCatV1.23B14,2013-12-25 05:27:00,
2013-12-25 05:37:00,40.1,33.1,28.61,SE,135,2.2,2.2,76,0.00,,,0.00,WeatherCatV1.23B14,2013-12-25 05:37:00,
2013-12-25 06:05:00,39.9,32.2,28.62,SE,133,0.9,0.0,74,0.00,,,0.00,WeatherCatV1.23B14,2013-12-25 06:05:00,
2013-12-25 06:07:00,39.9,32.2,28.62,WSW,247,0.0,0.0,74,0.00,,,0.00,WeatherCatV1.23B14,2013-12-25 06:07:00,
2013-12-25 06:10:00,39.7,32.1,28.63,SE,136,3.0,5.8,74,0.00,,,0.00,WeatherCatV1.23B14,2013-12-25 06:10:00,
2013-12-25 06:15:00,39.7,32.1,28.63,SE,134,2.6,2.6,74,0.00,,,0.00,WeatherCatV1.23B14,2013-12-25 06:15:00,
2013-12-25 06:20:00,39.7,32.1,28.63,SE,126,4.5,8.3,74,0.00,,,0.00,WeatherCatV1.23B14,2013-12-25 06:20:00,
2013-12-25 06:25:00,39.7,32.1,28.63,SE,124,3.9,8.3,74,0.00,,,0.00,WeatherCatV1.23B14,2013-12-25 06:25:00,
2013-12-25 06:30:00,39.7,32.1,28.63,SE,127,4.8,7.6,74,0.00,,,0.00,WeatherCatV1.23B14,2013-12-25 06:30:00,
2013-12-25 06:35:00,39.9,32.1,28.64,ESE,121,5.8,8.9,74,0.00,,,0.00,WeatherCatV1.23B14,2013-12-25 06:35:00,
2013-12-25 06:49:00,39.9,32.1,28.64,ESE,119,5.8,8.9,74,0.00,,,0.00,WeatherCatV1.23B14,2013-12-25 06:49:00,
2013-12-25 07:05:00,39.9,31.9,28.64,SE,127,6.9,0.0,73,0.00,,,0.00,WeatherCatV1.23B14,2013-12-25 07:05:00,
2013-12-25 07:09:00,39.7,31.6,28.64,West,270,0.0,0.0,72,0.00,,,0.00,WeatherCatV1.23B14,2013-12-25 07:09:00,
2013-12-25 07:10:00,39.7,31.6,28.64,SE,125,2.2,0.0,72,0.00,,,0.00,WeatherCatV1.23B14,2013-12-25 07:10:00,
2013-12-25 07:15:00,39.9,31.6,28.65,ESE,122,2.7,4.2,72,0.00,,,0.00,WeatherCatV1.23B14,2013-12-25 07:15:00,
2013-12-25 07:20:00,39.7,31.6,28.65,SE,126,1.1,0.0,73,0.00,,,0.00,WeatherCatV1.23B14,2013-12-25 07:20:00,
2013-12-25 07:25:00,39.7,31.6,28.65,ESE,122,0.6,0.0,73,0.00,,,0.00,WeatherCatV1.23B14,2013-12-25 07:25:00,
2013-12-25 07:30:00,39.7,31.8,28.65,SE,131,2.3,8.7,73,0.00,,,0.00,WeatherCatV1.23B14,2013-12-25 07:30:00,
2013-12-25 07:35:00,39.6,31.6,28.66,SE,135,4.1,4.5,74,0.00,,,0.00,WeatherCatV1.23B14,2013-12-25 07:35:00,
2013-12-25 07:40:00,39.7,31.9,28.66,SE,133,2.7,5.6,74,0.00,,,0.00,WeatherCatV1.23B14,2013-12-25 07:40:00,
2013-12-25 07:51:00,39.7,31.9,28.66,SE,137,5.0,7.4,73,0.00,,,0.00,WeatherCatV1.23B14,2013-12-25 07:51:00,
2013-12-25 08:12:00,39.4,31.9,28.68,SE,135,8.5,8.5,74,0.00,,,0.00,WeatherCatV1.23B14,2013-12-25 08:12:00,
2013-12-25 08:22:00,39.0,32.1,28.68,South,180,15.7,15.7,75,0.00,,,0.00,WeatherCatV1.23B14,2013-12-25 08:22:00,
2013-12-25 08:30:00,39.0,32.1,28.68,SSE,150,2.7,2.7,76,0.00,,,0.00,WeatherCatV1.23B14,2013-12-25 08:30:00,
2013-12-25 08:32:00,39.0,32.1,28.69,SE,135,1.6,1.6,76,0.00,,,0.00,WeatherCatV1.23B14,2013-12-25 08:32:00,
2013-12-25 08:35:00,39.0,31.9,28.69,SSE,149,2.7,2.7,76,0.00,,,0.00,WeatherCatV1.23B14,2013-12-25 08:35:00,
2013-12-25 08:40:00,39.0,31.9,28.69,SE,143,1.3,0.0,77,0.00,,,0.00,WeatherCatV1.23B14,2013-12-25 08:40:00,
2013-12-25 08:45:00,38.3,31.9,28.70,SE,140,1.1,2.9,77,0.00,,,0.00,WeatherCatV1.23B14,2013-12-25 08:45:00,
2013-12-25 08:50:00,38.3,32.0,28.70,SE,133,1.9,3.6,78,0.00,,,0.00,WeatherCatV1.23B14,2013-12-25 08:50:00,
2013-12-25 08:55:00,38.5,31.9,28.70,SE,138,0.7,0.0,77,0.00,,,0.00,WeatherCatV1.23B14,2013-12-25 08:55:00,
2013-12-25 09:00:00,38.5,31.9,28.70,SE,140,1.0,1.3,77,0.00,,,0.00,WeatherCatV1.23B14,2013-12-25 09:00:00,
2013-12-25 09:12:00,38.5,31.7,28.71,SE,139,1.7,2.5,78,0.00,,,0.00,WeatherCatV1.23B14,2013-12-25 09:12:00,
2013-12-25 09:22:00,37.9,32.0,28.72,NW,315,0.0,0.0,79,0.00,,,0.00,WeatherCatV1.23B14,2013-12-25 09:22:00,
2013-12-25 09:30:00,38.1,32.2,28.72,South,169,5.1,5.1,79,0.00,,,0.00,WeatherCatV1.23B14,2013-12-25 09:30:00,
2013-12-25 09:32:00,38.1,32.2,28.72,SW,225,0.0,5.1,79,0.00,,,0.00,WeatherCatV1.23B14,2013-12-25 09:32:00,
2013-12-25 09:35:00,38.1,32.2,28.72,SW,214,2.9,3.8,79,0.00,,,0.00,WeatherCatV1.23B14,2013-12-25 09:35:00,
2013-12-25 09:40:00,38.1,32.2,28.72,SW,219,0.1,0.0,79,0.00,,,0.00,WeatherCatV1.23B14,2013-12-25 09:40:00,
2013-12-25 09:45:00,38.5,32.2,28.73,SW,226,0.6,1.1,79,0.00,,,0.00,WeatherCatV1.23B14,2013-12-25 09:45:00,
2013-12-25 09:50:00,38.5,32.6,28.73,SW,226,3.0,5.4,79,0.00,,,0.00,WeatherCatV1.23B14,2013-12-25 09:50:00,
2013-12-25 09:55:00,38.5,32.6,28.73,SW,220,1.5,0.0,79,0.00,,,0.00,WeatherCatV1.23B14,2013-12-25 09:55:00,
2013-12-25 10:00:00,38.8,33.1,28.74,SW,227,1.6,1.8,79,0.00,,,0.00,WeatherCatV1.23B14,2013-12-25 10:00:00,
2013-12-25 10:05:00,38.8,33.1,28.74,WSW,237,0.8,1.8,79,0.00,,,0.00,WeatherCatV1.23B14,2013-12-25 10:05:00,
2013-12-25 10:10:00,39.2,33.1,28.74,WSW,244,0.4,0.0,79,0.00,,,0.00,WeatherCatV1.23B14,2013-12-25 10:10:00,
2013-12-25 10:15:00,39.2,33.4,28.74,WSW,244,0.5,0.7,79,0.00,,,0.00,WeatherCatV1.23B14,2013-12-25 10:15:00,
2013-12-25 10:16:00,39.2,33.1,28.74,WSW,244,0.4,0.0,79,0.00,,,0.00,WeatherCatV1.23B14,2013-12-25 10:16:00,
2013-12-25 10:20:00,39.2,33.4,28.74,WSW,238,3.3,6.0,79,0.00,,,0.00,WeatherCatV1.23B14,2013-12-25 10:20:00,
2013-12-25 10:25:00,39.9,33.6,28.75,WSW,249,1.3,2.0,79,0.00,,,0.00,WeatherCatV1.23B14,2013-12-25 10:25:00,
2013-12-25 10:30:00,39.9,33.6,28.75,WSW,253,4.7,8.1,78,0.00,,,0.00,WeatherCatV1.23B14,2013-12-25 10:30:00,
2013-12-25 10:35:00,40.3,33.6,28.75,WSW,248,2.3,0.0,78,0.00,,,0.00,WeatherCatV1.23B14,2013-12-25 10:35:00,
2013-12-25 10:40:00,40.3,33.9,28.75,WSW,243,3.0,3.6,78,0.00,,,0.00,WeatherCatV1.23B14,2013-12-25 10:40:00,
2013-12-25 10:45:00,40.3,33.9,28.75,WSW,244,3.9,6.3,78,0.00,,,0.00,WeatherCatV1.23B14,2013-12-25 10:45:00,
2013-12-25 10:49:00,40.3,33.9,28.75,WSW,243,3.0,3.6,78,0.00,,,0.00,WeatherCatV1.23B14,2013-12-25 10:49:00,
2013-12-25 10:50:00,40.3,33.9,28.76,WSW,241,3.9,0.0,78,0.00,,,0.00,WeatherCatV1.23B14,2013-12-25 10:50:00,
2013-12-25 10:55:00,40.5,33.9,28.76,SW,228,1.0,0.0,78,0.00,,,0.00,WeatherCatV1.23B14,2013-12-25 10:55:00,
2013-12-25 11:00:00,40.5,33.9,28.76,SW,225,5.0,8.9,78,0.00,,,0.00,WeatherCatV1.23B14,2013-12-25 11:00:00,
2013-12-25 11:05:00,40.5,33.9,28.76,SW,231,2.9,2.9,77,0.00,,,0.00,WeatherCatV1.23B14,2013-12-25 11:05:00,
2013-12-25 11:10:00,40.8,34.1,28.77,SW,225,1.5,0.0,77,0.00,,,0.00,WeatherCatV1.23B14,2013-12-25 11:10:00,
2013-12-25 11:22:00,40.8,34.1,28.77,SW,231,0.7,0.0,77,0.00,,,0.00,WeatherCatV1.23B14,2013-12-25 11:22:00,
2013-12-25 11:43:00,41.2,34.5,28.77,NNW,337,0.0,0.0,77,0.00,,,0.00,WeatherCatV1.23B14,2013-12-25 11:43:00,
2013-12-25 11:50:00,41.2,34.5,28.77,SW,225,0.0,0.0,77,0.00,,,0.00,WeatherCatV1.23B14,2013-12-25 11:50:00,
2013-12-25 11:54:00,41.2,34.5,28.76,WNW,292,0.0,0.0,77,0.00,,,0.00,WeatherCatV1.23B14,2013-12-25 11:54:00,
2013-12-25 11:55:00,41.2,34.5,28.76,SW,228,0.9,1.8,77,0.00,,,0.00,WeatherCatV1.23B14,2013-12-25 11:55:00,
2013-12-25 12:00:00,41.2,34.5,28.76,SW,221,0.4,0.0,76,0.00,,,0.00,WeatherCatV1.23B14,2013-12-25 12:00:00,
2013-12-25 12:05:00,41.9,34.5,28.76,SW,216,0.2,0.0,76,0.00,,,0.00,WeatherCatV1.23B14,2013-12-25 12:05:00,
2013-12-25 12:10:00,41.9,34.5,28.76,SSW,209,2.8,6.9,75,0.00,,,0.00,WeatherCatV1.23B14,2013-12-25 12:10:00,
2013-12-25 12:15:00,41.9,34.5,28.76,SSW,207,2.8,2.8,75,0.00,,,0.00,WeatherCatV1.23B14,2013-12-25 12:15:00,
2013-12-25 12:20:00,41.9,34.5,28.77,SSW,209,3.2,3.6,75,0.00,,,0.00,WeatherCatV1.23B14,2013-12-25 12:20:00,
2013-12-25 12:25:00,41.9,34.4,28.77,SSW,209,2.4,2.4,74,0.00,,,0.00,WeatherCatV1.23B14,2013-12-25 12:25:00,
2013-12-25 12:26:00,41.9,34.5,28.76,SSW,207,3.2,3.6,75,0.00,,,0.00,WeatherCatV1.23B14,2013-12-25 12:26:00,
2013-12-25 12:30:00,41.9,34.4,28.77,SSW,207,1.2,0.0,74,0.00,,,0.00,WeatherCatV1.23B14,2013-12-25 12:30:00,
2013-12-25 12:35:00,42.1,34.7,28.78,SSW,210,0.7,0.9,74,0.00,,,0.00,WeatherCatV1.23B14,2013-12-25 12:35:00,
2013-12-25 12:40:00,42.1,34.7,28.78,SSW,208,5.6,10.5,74,0.00,,,0.00,WeatherCatV1.23B14,2013-12-25 12:40:00,
2013-12-25 12:45:00,42.6,34.7,28.77,SSW,205,2.8,0.0,74,0.00,,,0.00,WeatherCatV1.23B14,2013-12-25 12:45:00,
2013-12-25 12:50:00,42.6,35.3,28.77,SSW,211,1.0,0.0,73,0.00,,,0.00,WeatherCatV1.23B14,2013-12-25 12:50:00,
2013-12-25 13:20:00,43.0,34.9,28.79,SW,216,0.3,0.0,73,0.00,,,0.00,WeatherCatV1.23B14,2013-12-25 13:20:00,
2013-12-25 13:21:00,43.0,34.9,28.79,West,270,0.0,0.0,73,0.00,,,0.00,WeatherCatV1.23B14,2013-12-25 13:21:00,
2013-12-25 13:25:00,43.0,34.9,28.79,SW,217,0.1,0.0,73,0.00,,,0.00,WeatherCatV1.23B14,2013-12-25 13:25:00,
2013-12-25 13:30:00,43.0,34.9,28.79,SW,217,0.1,0.0,73,0.00,,,0.00,WeatherCatV1.23B14,2013-12-25 13:30:00,
2013-12-25 13:35:00,43.0,34.9,28.80,SSW,209,1.9,0.0,73,0.00,,,0.00,WeatherCatV1.23B14,2013-12-25 13:35:00,
2013-12-25 13:40:00,43.0,34.9,28.80,SSW,211,1.8,1.8,73,0.00,,,0.00,WeatherCatV1.23B14,2013-12-25 13:40:00,
2013-12-25 13:45:00,42.6,34.9,28.80,SW,214,2.3,2.9,73,0.00,,,0.00,WeatherCatV1.23B14,2013-12-25 13:45:00,
2013-12-25 13:50:00,42.6,34.6,28.80,SSW,213,4.9,7.4,73,0.00,,,0.00,WeatherCatV1.23B14,2013-12-25 13:50:00,
2013-12-25 14:00:00,42.4,34.6,28.80,SW,217,1.2,0.0,73,0.00,,,0.00,WeatherCatV1.23B14,2013-12-25 14:00:00,
2013-12-25 14:04:00,42.6,34.6,28.80,SSW,213,4.9,0.0,73,0.00,,,0.00,WeatherCatV1.23B14,2013-12-25 14:04:00,
2013-12-25 14:05:00,42.4,34.4,28.80,SW,222,0.6,0.0,73,0.00,,,0.00,WeatherCatV1.23B14,2013-12-25 14:05:00,
2013-12-25 14:10:00,42.4,34.4,28.80,SW,219,3.8,6.9,73,0.00,,,0.00,WeatherCatV1.23B14,2013-12-25 14:10:00,
2013-12-25 14:15:00,42.4,34.4,28.80,SW,215,3.6,3.6,73,0.00,,,0.00,WeatherCatV1.23B14,2013-12-25 14:15:00,
2013-12-25 14:20:00,42.4,34.7,28.80,SSW,208,7.1,10.7,74,0.00,,,0.00,WeatherCatV1.23B14,2013-12-25 14:20:00,
2013-12-25 14:25:00,42.1,34.7,28.80,SSW,213,3.6,0.0,74,0.00,,,0.00,WeatherCatV1.23B14,2013-12-25 14:25:00,
2013-12-25 14:37:00,42.1,34.7,28.82,SW,215,1.8,0.0,74,0.00,,,0.00,WeatherCatV1.23B14,2013-12-25 14:37:00,
2013-12-25 14:55:00,41.7,34.0,28.83,SW,215,1.1,2.0,74,0.00,,,0.00,WeatherCatV1.23B14,2013-12-25 14:55:00,
2013-12-25 14:58:00,41.9,34.0,28.83,SE,135,2.0,2.0,74,0.00,,,0.00,WeatherCatV1.23B14,2013-12-25 14:58:00,
2013-12-25 15:00:00,41.9,34.0,28.83,SSW,210,4.4,7.6,74,0.00,,,0.00,WeatherCatV1.23B14,2013-12-25 15:00:00,
2013-12-25 15:05:00,41.9,33.7,28.84,SSW,202,2.2,7.6,74,0.00,,,0.00,WeatherCatV1.23B14,2013-12-25 15:05:00,
2013-12-25 15:10:00,41.9,33.7,28.84,SSW,198,2.2,0.0,73,0.00,,,0.00,WeatherCatV1.23B14,2013-12-25 15:10:00,
2013-12-25 15:15:00,41.9,33.7,28.84,SSW,206,1.1,0.0,73,0.00,,,0.00,WeatherCatV1.23B14,2013-12-25 15:15:00,
2013-12-25 15:20:00,41.9,33.7,28.84,SSW,207,4.2,7.4,73,0.00,,,0.00,WeatherCatV1.23B14,2013-12-25 15:20:00,
2013-12-25 15:25:00,41.9,33.9,28.84,SSW,202,2.1,7.4,73,0.00,,,0.00,WeatherCatV1.23B14,2013-12-25 15:25:00,
2013-12-25 15:30:00,41.9,33.9,28.84,SSW,194,4.6,7.2,73,0.00,,,0.00,WeatherCatV1.23B14,2013-12-25 15:30:00,
2013-12-25 15:42:00,41.7,33.9,28.85,South,191,5.7,6.7,73,0.00,,,0.00,WeatherCatV1.23B14,2013-12-25 15:42:00,
2013-12-25 16:10:00,41.5,33.5,28.87,SSW,194,2.9,5.1,73,0.00,,,0.00,WeatherCatV1.23B14,2013-12-25 16:10:00,
2013-12-25 16:13:00,41.5,33.3,28.87,SSE,157,2.2,5.1,73,0.00,,,0.00,WeatherCatV1.23B14,2013-12-25 16:13:00,
2013-12-25 16:15:00,41.5,33.3,28.87,South,189,1.9,2.2,73,0.00,,,0.00,WeatherCatV1.23B14,2013-12-25 16:15:00,
2013-12-25 16:20:00,41.5,33.3,28.87,South,183,1.9,2.0,73,0.00,,,0.00,WeatherCatV1.23B14,2013-12-25 16:20:00,
2013-12-25 16:25:00,41.0,33.3,28.87,South,179,1.0,0.0,73,0.00,,,0.00,WeatherCatV1.23B14,2013-12-25 16:25:00,
2013-12-25 16:30:00,41.0,33.1,28.87,South,177,0.5,0.0,75,0.00,,,0.00,WeatherCatV1.23B14,2013-12-25 16:30:00,
2013-12-25 16:35:00,40.8,33.1,28.87,South,173,0.1,0.0,75,0.00,,,0.00,WeatherCatV1.23B14,2013-12-25 16:35:00,
2013-12-25 16:40:00,40.8,33.4,28.88,SSE,168,0.1,0.0,75,0.00,,,0.00,WeatherCatV1.23B14,2013-12-25 16:40:00,
2013-12-25 16:45:00,40.8,33.4,28.88,SSE,167,0.0,0.0,75,0.00,,,0.00,WeatherCatV1.23B14,2013-12-25 16:45:00,
2013-12-25 16:57:00,40.8,33.4,28.88,SSE,164,0.0,0.0,75,0.00,,,0.00,WeatherCatV1.23B14,2013-12-25 16:57:00,
2013-12-25 17:18:00,41.4,33.8,28.89,WNW,292,2.7,2.7,75,0.00,,,0.00,WeatherCatV1.23B14,2013-12-25 17:18:00,
2013-12-25 17:35:00,40.8,33.4,28.90,SSE,148,0.2,0.0,76,0.00,,,0.00,WeatherCatV1.23B14,2013-12-25 17:35:00,
2013-12-25 17:38:00,40.3,33.4,28.90,SE,135,0.0,0.0,76,0.00,,,0.00,WeatherCatV1.23B14,2013-12-25 17:38:00,
2013-12-25 17:40:00,40.3,33.4,28.90,SE,145,2.0,3.8,76,0.00,,,0.00,WeatherCatV1.23B14,2013-12-25 17:40:00,
2013-12-25 17:45:00,40.3,33.3,28.91,SE,141,2.0,3.8,76,0.00,,,0.00,WeatherCatV1.23B14,2013-12-25 17:45:00,
2013-12-25 17:50:00,40.3,33.3,28.91,SE,135,1.0,0.0,76,0.00,,,0.00,WeatherCatV1.23B14,2013-12-25 17:50:00,
2013-12-25 17:55:00,40.1,33.3,28.91,SE,134,0.3,0.0,76,0.00,,,0.00,WeatherCatV1.23B14,2013-12-25 17:55:00,
2013-12-25 18:00:00,40.1,33.6,28.92,SE,134,0.1,0.0,77,0.00,,,0.00,WeatherCatV1.23B14,2013-12-25 18:00:00,
2013-12-25 18:05:00,40.1,33.6,28.92,SE,132,0.1,0.0,77,0.00,,,0.00,WeatherCatV1.23B14,2013-12-25 18:05:00,
2013-12-25 18:10:00,40.5,33.8,28.91,SE,135,0.9,1.8,77,0.00,,,0.00,WeatherCatV1.23B14,2013-12-25 18:10:00,
2013-12-25 18:20:00,40.5,33.8,28.91,SE,137,3.9,6.9,77,0.00,,,0.00,WeatherCatV1.23B14,2013-12-25 18:20:00,
2013-12-25 18:22:00,40.5,33.8,28.91,SE,133,0.9,1.8,77,0.00,,,0.00,WeatherCatV1.23B14,2013-12-25 18:22:00,
2013-12-25 18:25:00,40.5,33.6,28.92,SSE,147,5.5,6.5,77,0.00,,,0.00,WeatherCatV1.23B14,2013-12-25 18:25:00,
2013-12-25 18:30:00,40.6,33.8,28.92,SE,142,0.7,0.0,77,0.00,,,0.00,WeatherCatV1.23B14,2013-12-25 18:30:00,
2013-12-25 18:35:00,40.6,33.9,28.92,SE,138,1.6,2.5,77,0.00,,,0.00,WeatherCatV1.23B14,2013-12-25 18:35:00,
2013-12-25 18:40:00,40.6,33.9,28.92,SE,126,0.7,1.3,77,0.00,,,0.00,WeatherCatV1.23B14,2013-12-25 18:40:00,
2013-12-25 18:45:00,40.6,33.9,28.93,SE,130,2.0,6.3,77,0.00,,,0.00,WeatherCatV1.23B14,2013-12-25 18:45:00,
2013-12-25 18:50:00,40.6,33.9,28.93,SE,125,0.9,1.6,77,0.00,,,0.00,WeatherCatV1.23B14,2013-12-25 18:50:00,
2013-12-25 18:55:00,40.6,33.9,28.93,SE,126,1.2,1.6,77,0.00,,,0.00,WeatherCatV1.23B14,2013-12-25 18:55:00,
2013-12-25 19:05:00,40.5,33.8,28.94,SE,131,1.3,1.3,77,0.00,,,0.00,WeatherCatV1.23B14,2013-12-25 19:05:00,
2013-12-25 19:06:00,40.6,33.9,28.93,SE,124,1.2,1.6,77,0.00,,,0.00,WeatherCatV1.23B14,2013-12-25 19:06:00,
2013-12-25 19:10:00,40.5,33.8,28.94,SE,138,1.9,3.1,77,0.00,,,0.00,WeatherCatV1.23B14,2013-12-25 19:10:00,
2013-12-25 19:15:00,39.9,33.8,28.94,SE,142,0.9,3.1,77,0.00,,,0.00,WeatherCatV1.23B14,2013-12-25 19:15:00,
2013-12-25 19:20:00,39.9,33.4,28.95,SE,145,0.9,0.0,77,0.00,,,0.00,WeatherCatV1.23B14,2013-12-25 19:20:00,
2013-12-25 19:25:00,39.7,33.4,28.95,SSE,151,0.8,0.0,78,0.00,,,0.00,WeatherCatV1.23B14,2013-12-25 19:25:00,
2013-12-25 19:30:00,39.7,33.4,28.96,SSE,153,0.4,0.0,78,0.00,,,0.00,WeatherCatV1.23B14,2013-12-25 19:30:00,
2013-12-25 19:35:00,39.7,33.3,28.96,SSE,154,0.4,0.0,78,0.00,,,0.00,WeatherCatV1.23B14,2013-12-25 19:35:00,
2013-12-25 19:40:00,39.7,33.3,28.96,SSE,155,3.8,7.4,78,0.00,,,0.00,WeatherCatV1.23B14,2013-12-25 19:40:00,
2013-12-25 19:45:00,39.7,33.3,28.97,SSE,150,1.9,0.0,78,0.00,,,0.00,WeatherCatV1.23B14,2013-12-25 19:45:00,
2013-12-25 19:50:00,39.7,33.8,28.97,SE,146,0.9,0.0,79,0.00,,,0.00,WeatherCatV1.23B14,2013-12-25 19:50:00,
2013-12-25 19:55:00,39.7,33.8,28.97,SSE,150,1.6,2.2,79,0.00,,,0.00,WeatherCatV1.23B14,2013-12-25 19:55:00,
2013-12-25 20:00:00,39.4,33.8,28.97,SSE,156,0.8,0.0,79,0.00,,,0.00,WeatherCatV1.23B14,2013-12-25 20:00:00,
2013-12-25 20:05:00,39.4,33.4,28.97,SSE,156,1.1,1.8,79,0.00,,,0.00,WeatherCatV1.23B14,2013-12-25 20:05:00,
2013-12-25 20:10:00,39.4,33.4,28.97,SSE,156,1.1,0.0,79,0.00,,,0.00,WeatherCatV1.23B14,2013-12-25 20:10:00,
2013-12-25 20:24:00,39.0,33.1,28.98,SSE,156,0.3,0.0,79,0.00,,,0.00,WeatherCatV1.23B14,2013-12-25 20:24:00,
2013-12-25 20:34:00,38.5,33.2,28.98,SE,135,0.0,0.0,80,0.00,,,0.00,WeatherCatV1.23B14,2013-12-25 20:34:00,
2013-12-25 20:35:00,38.5,33.2,28.98,SSE,155,1.2,1.8,80,0.00,,,0.00,WeatherCatV1.23B14,2013-12-25 20:35:00,
2013-12-25 20:40:00,38.8,33.2,28.98,SSE,160,0.9,2.5,81,0.00,,,0.00,WeatherCatV1.23B14,2013-12-25 20:40:00,
2013-12-25 20:45:00,38.8,33.5,28.98,SSE,166,0.5,0.0,81,0.00,,,0.00,WeatherCatV1.23B14,2013-12-25 20:45:00,
2013-12-25 20:50:00,38.8,33.5,28.98,South,170,0.2,0.0,81,0.00,,,0.00,WeatherCatV1.23B14,2013-12-25 20:50:00,
2013-12-25 20:55:00,38.8,33.5,28.98,South,174,0.1,0.0,81,0.00,,,0.00,WeatherCatV1.23B14,2013-12-25 20:55:00,
2013-12-25 21:00:00,38.8,33.5,29.00,South,177,0.1,0.0,81,0.00,,,0.00,WeatherCatV1.23B14,2013-12-25 21:00:00,
2013-12-25 21:05:00,38.8,33.2,29.00,South,184,0.0,0.0,81,0.00,,,0.00,WeatherCatV1.23B14,2013-12-25 21:05:00,
2013-12-25 21:15:00,38.1,33.0,29.00,South,182,2.4,4.7,81,0.00,,,0.00,WeatherCatV1.23B14,2013-12-25 21:15:00,
2013-12-25 21:18:00,38.1,33.0,29.00,South,183,0.0,0.0,81,0.00,,,0.00,WeatherCatV1.23B14,2013-12-25 21:18:00,
2013-12-25 21:20:00,38.1,33.0,29.00,South,181,2.0,2.0,81,0.00,,,0.00,WeatherCatV1.23B14,2013-12-25 21:20:00,
2013-12-25 21:25:00,38.3,33.0,29.00,South,180,1.0,0.0,81,0.00,,,0.00,WeatherCatV1.23B14,2013-12-25 21:25:00,
2013-12-25 21:30:00,38.3,33.0,29.00,South,179,2.5,4.0,81,0.00,,,0.00,WeatherCatV1.23B14,2013-12-25 21:30:00,
2013-12-25 21:35:00,38.3,33.0,29.00,South,177,3.7,4.9,82,0.00,,,0.00,WeatherCatV1.23B14,2013-12-25 21:35:00,
2013-12-25 21:40:00,38.5,33.0,29.01,South,174,1.9,0.0,82,0.00,,,0.00,WeatherCatV1.23B14,2013-12-25 21:40:00,
2013-12-25 21:50:00,38.5,33.2,29.01,South,170,2.0,2.5,81,0.00,,,0.00,WeatherCatV1.23B14,2013-12-25 21:50:00,
2013-12-25 21:51:00,38.5,33.2,29.01,South,172,1.6,1.6,81,0.00,,,0.00,WeatherCatV1.23B14,2013-12-25 21:51:00,
2013-12-25 21:55:00,39.0,33.2,29.01,SSE,168,1.6,2.5,81,0.00,,,0.00,WeatherCatV1.23B14,2013-12-25 21:55:00,
2013-12-25 22:00:00,39.0,33.7,29.01,SSE,168,3.5,5.4,81,0.00,,,0.00,WeatherCatV1.23B14,2013-12-25 22:00:00,
2013-12-25 22:05:00,39.0,33.7,29.01,SSE,167,3.5,0.0,81,0.00,,,0.00,WeatherCatV1.23B14,2013-12-25 22:05:00,
2013-12-25 22:10:00,39.0,33.4,29.02,SSE,165,0.9,0.0,81,0.00,,,0.00,WeatherCatV1.23B14,2013-12-25 22:10:00,
2013-12-25 22:15:00,39.0,33.4,29.02,SSE,162,0.4,0.0,80,0.00,,,0.00,WeatherCatV1.23B14,2013-12-25 22:15:00,
2013-12-25 22:20:00,38.8,33.3,29.02,SSE,160,0.2,0.0,80,0.00,,,0.00,WeatherCatV1.23B14,2013-12-25 22:20:00,
2013-12-25 22:25:00,38.8,33.3,29.02,SSE,160,1.3,1.6,80,0.00,,,0.00,WeatherCatV1.23B14,2013-12-25 22:25:00,
2013-12-25 22:30:00,38.8,32.9,29.03,SSE,162,0.3,0.0,80,0.00,,,0.00,WeatherCatV1.23B14,2013-12-25 22:30:00,
2013-12-25 22:35:00,38.8,32.9,29.03,SSE,166,0.1,0.0,79,0.00,,,0.00,WeatherCatV1.23B14,2013-12-25 22:35:00,
2013-12-25 22:36:00,38.8,32.9,29.03,SSE,162,0.3,0.0,80,0.00,,,0.00,WeatherCatV1.23B14,2013-12-25 22:36:00,
2013-12-25 22:40:00,38.8,32.9,29.03,South,169,0.1,0.0,79,0.00,,,0.00,WeatherCatV1.23B14,2013-12-25 22:40:00,
2013-12-25 22:45:00,38.8,32.9,29.03,SSE,164,0.4,1.6,79,0.00,,,0.00,WeatherCatV1.23B14,2013-12-25 22:45:00,
2013-12-25 22:50:00,38.8,32.9,29.03,SSE,159,0.2,0.0,79,0.00,,,0.00,WeatherCatV1.23B14,2013-12-25 22:50:00,
2013-12-25 22:55:00,38.8,32.9,29.04,SSE,157,0.2,0.0,79,0.00,,,0.00,WeatherCatV1.23B14,2013-12-25 22:55:00,
2013-12-25 23:00:00,38.8,32.7,29.04,SSE,151,0.1,0.0,79,0.00,,,0.00,WeatherCatV1.23B14,2013-12-25 23:00:00,
2013-12-25 23:05:00,38.8,32.7,29.04,SSE,149,0.0,0.0,79,0.00,,,0.00,WeatherCatV1.23B14,2013-12-25 23:05:00,
2013-12-25 23:10:00,38.8,32.7,29.04,SSE,151,0.1,0.0,79,0.00,,,0.00,WeatherCatV1.23B14,2013-12-25 23:10:00,
2013-12-25 23:15:00,38.8,33.1,29.04,SSE,147,0.0,0.0,79,0.00,,,0.00,WeatherCatV1.23B14,2013-12-25 23:15:00,
2013-12-25 23:20:00,38.8,32.9,29.04,SE,146,0.0,0.0,79,0.00,,,0.00,WeatherCatV1.23B14,2013-12-25 23:20:00,
2013-12-25 23:25:00,38.5,32.9,29.04,SE,145,0.0,0.0,79,0.00,,,0.00,WeatherCatV1.23B14,2013-12-25 23:25:00,
2013-12-25 23:30:00,38.5,32.9,29.04,SE,145,0.0,0.0,79,0.00,,,0.00,WeatherCatV1.23B14,2013-12-25 23:30:00,
2013-12-25 23:35:00,38.5,32.4,29.04,SE,144,0.0,0.0,79,0.00,,,0.00,WeatherCatV1.23B14,2013-12-25 23:35:00,
2013-12-25 23:40:00,38.3,32.4,29.05,SE,143,0.0,0.0,79,0.00,,,0.00,WeatherCatV1.23B14,2013-12-25 23:40:00,
2013-12-25 23:54:00,38.3,32.2,29.05,SE,143,0.0,0.0,79,0.00,,,0.00,WeatherCatV1.23B14,2013-12-25 23:54:00,